Theta_e
337 337 338 338 337 336 337 338 337 337 337 338 338 337 337 338 337 335 334 334 334 334 334 334 334 334 333 331 332 333 333 333 333 333 333 332 332 330 326 324 322 323 325 328 329 329 330 330 330 330 329 328 326 323 318 317 316 316 317 320 322 321 320 320 319 318 320 320 321 321 320 319 318 316 314 313 312 311 311 311 315 320 322 323 324
335 335 336 335 335 335 336 337 336 335 334 337 336 335 336 336 337 337 336 336 335 335 335 335 334 334 334 334 334 334 334 334 333 334 334 333 333 333 332 330 327 326 327 329 330 331 331 331 330 330 330 329 328 327 322 319 317 317 317 319 322 321 320 320 319 319 320 321 322 321 321 320 320 319 317 316 313 311 312 311 313 318 321 322 323
335 335 334 333 334 334 333 334 334 332 330 333 332 331 332 333 335 336 336 336 335 336 336 335 335 334 334 334 333 334 335 335 335 334 334 333 333 332 333 333 332 330 329 329 330 331 331 331 331 331 331 330 329 329 326 322 318 318 317 319 322 322 321 319 318 319 320 322 322 320 320 321 321 321 319 317 314 311 311 312 313 317 320 321 321
335 335 333 333 334 333 332 332 332 331 330 332 332 331 331 331 332 332 331 333 335 337 337 337 337 336 335 334 334 334 333 334 334 334 333 334 334 333 333 333 334 333 332 331 330 330 330 330 331 331 331 331 330 329 328 326 322 320 318 318 321 323 322 320 318 318 320 322 322 320 320 322 321 321 320 318 315 313 312 311 312 314 317 319 318
335 335 334 334 334 333 333 333 332 332 331 331 331 332 333 333 333 332 333 333 333 335 336 338 337 337 336 336 335 335 335 335 334 334 334 334 334 334 333 333 334 334 333 333 332 331 329 329 330 330 331 331 331 330 329 328 324 322 320 318 320 323 323 320 319 318 320 321 322 321 321 323 322 320 320 319 317 316 315 314 312 311 313 314 313
335 334 334 334 335 334 333 333 333 331 331 332 333 334 334 334 334 335 336 334 333 335 336 337 337 336 336 336 336 336 336 336 335 335 334 334 334 333 333 332 334 334 333 333 333 332 330 330 329 330 331 331 331 331 330 329 327 324 322 320 320 323 323 322 319 318 319 320 321 321 322 324 323 320 319 319 319 319 318 317 315 313 311 311 310
332 332 333 334 337 337 335 333 332 332 332 333 333 333 334 335 334 334 334 334 334 335 335 336 336 336 336 335 335 335 335 336 335 335 334 334 334 333 334 334 334 334 334 333 333 333 332 331 331 330 330 331 331 331 330 330 329 326 323 322 323 324 324 322 321 319 319 320 320 321 322 324 323 321 319 320 320 320 319 319 318 317 315 313 312
329 331 332 334 336 338 336 333 331 332 332 332 332 334 335 334 334 333 333 333 335 336 336 336 335 336 336 334 334 334 334 334 334 334 334 335 334 334 334 333 334 334 334 334 334 333 332 332 332 331 330 331 331 330 330 330 330 328 325 325 326 325 324 323 321 320 319 321 321 320 322 324 324 322 320 321 321 321 321 320 319 319 318 318 317
331 330 332 333 335 337 335 333 332 332 331 331 333 336 336 334 333 333 334 334 334 335 337 336 335 335 336 335 335 334 333 334 334 333 332 333 334 335 334 333 334 335 334 335 334 333 332 333 332 332 331 331 331 331 331 330 330 329 326 326 327 326 326 325 322 321 320 321 321 321 322 323 324 324 321 322 323 322 322 321 321 320 320 320 320
332 332 333 334 335 335 335 334 334 334 333 333 334 337 337 334 333 333 334 334 333 334 335 336 335 334 335 335 334 333 332 333 333 333 333 334 334 334 334 334 334 335 335 336 335 334 333 332 331 331 332 331 331 331 331 331 330 330 327 326 328 328 328 327 325 322 320 320 322 322 322 322 323 324 323 322 323 323 323 323 322 322 321 321 319
333 333 333 334 335 335 335 335 334 334 335 334 335 336 335 333 332 332 332 333 333 334 334 334 334 333 333 332 332 333 333 333 332 332 333 333 333 333 333 334 334 335 335 335 335 334 333 333 331 332 332 331 331 331 331 331 330 330 329 327 329 330 329 329 328 325 322 320 321 323 323 322 322 323 324 323 323 323 324 323 323 322 321 320 317
334 334 334 334 335 335 335 335 335 335 335 335 335 335 334 333 332 332 333 333 333 334 333 333 333 333 333 333 332 332 333 332 331 330 331 331 332 333 333 334 335 334 334 332 331 330 331 332 332 331 332 331 330 331 331 331 331 331 330 328 329 330 330 330 330 328 325 322 321 322 323 322 322 322 323 324 323 323 324 324 323 322 322 318 314
334 335 335 334 335 336 335 334 335 335 335 335 335 334 334 333 333 333 334 334 334 333 332 331 332 334 334 334 333 333 334 334 332 331 332 333 333 333 333 333 332 331 331 330 328 326 326 330 332 332 332 332 331 331 331 331 331 331 330 328 328 329 330 330 330 329 328 325 322 321 321 321 321 322 322 323 323 323 324 325 323 322 322 319 312
334 334 334 334 334 334 335 334 334 334 334 334 334 333 333 334 333 333 334 334 334 333 332 332 333 334 333 333 332 332 332 333 334 334 334 334 334 334 334 333 332 330 330 332 330 328 327 330 332 333 333 333 332 332 332 332 331 330 331 330 327 328 329 330 330 330 330 328 325 323 321 320 320 321 322 322 323 324 324 325 324 322 322 321 315
331 331 331 330 330 331 332 333 333 333 333 333 333 333 332 332 332 332 332 333 333 334 333 332 332 332 331 332 332 332 330 330 333 334 332 332 332 334 335 334 333 332 331 331 331 332 331 330 331 331 332 332 332 331 331 332 331 330 330 330 328 326 328 329 330 330 330 329 327 326 325 323 320 321 321 322 323 324 324 324 325 324 322 322 319
328 328 328 328 328 327 328 329 329 330 331 330 331 330 330 329 329 329 329 330 331 332 332 332 331 331 331 331 331 331 331 330 331 331 330 331 332 333 334 332 332 331 329 328 330 332 332 332 331 331 332 332 331 330 330 331 331 331 330 330 329 327 326 327 329 330 330 330 328 326 327 326 321 320 320 321 323 324 324 324 324 325 322 319 320
328 328 328 328 327 326 326 325 325 325 326 326 327 327 328 328 327 328 327 328 328 328 329 330 331 331 331 331 331 331 330 330 330 330 329 330 331 331 331 331 332 332 330 329 331 331 331 332 332 331 332 332 332 331 330 330 330 331 331 330 330 329 327 325 326 329 331 330 329 327 327 327 323 320 320 320 322 324 324 324 324 325 323 318 318
328 327 327 326 325 325 325 324 323 323 322 323 324 324 325 326 325 325 325 325 326 326 327 328 328 328 329 330 330 331 330 329 329 329 328 329 329 329 330 330 330 331 331 331 331 331 331 331 331 332 332 332 331 331 331 330 330 330 331 331 330 330 329 326 324 327 330 330 329 328 327 327 325 322 320 319 322 324 323 324 324 324 324 320 317
327 326 325 324 324 323 322 322 321 320 320 321 321 319 319 321 321 321 322 322 323 324 325 326 326 327 328 329 328 329 329 329 329 329 328 328 328 329 329 328 329 329 330 330 330 330 331 330 330 331 332 332 332 331 331 331 331 330 329 330 330 330 330 328 325 325 327 329 329 329 328 327 326 324 322 319 320 323 324 324 324 324 324 323 319
325 323 322 321 320 319 318 317 316 315 317 318 316 314 313 315 316 318 319 320 321 321 322 324 324 325 326 326 326 326 326 328 328 328 328 328 328 328 328 328 328 329 329 329 329 330 330 330 330 330 331 332 332 332 332 332 332 330 328 329 329 329 330 329 327 326 326 327 328 329 328 327 327 326 324 321 320 322 323 323 324 324 324 324 321
321 319 318 317 316 316 315 313 312 312 314 314 312 312 312 313 315 315 316 316 317 318 320 321 321 322 322 322 323 324 325 326 327 327 327 327 328 327 328 328 328 328 328 328 329 329 329 330 330 330 330 330 331 332 332 332 332 331 330 329 329 329 329 329 328 327 327 327 327 328 329 328 327 327 327 324 320 320 322 323 324 324 324 324 323
317 316 315 315 315 314 313 311 311 311 311 311 310 310 310 313 313 311 311 312 313 314 316 318 318 319 319 319 321 322 323 324 324 325 325 325 326 327 327 327 327 327 327 327 328 328 328 329 330 330 330 330 331 331 332 332 332 332 331 331 329 328 329 329 329 328 327 327 327 327 328 328 327 327 327 326 322 318 321 323 323 324 324 324 323
315 314 314 314 313 312 310 309 308 308 308 308 307 306 308 311 310 308 309 310 310 312 314 315 316 316 317 318 318 320 320 321 322 322 322 323 323 324 325 325 325 325 326 326 327 327 327 328 328 329 330 331 331 331 331 332 332 331 331 331 330 328 328 329 330 329 329 328 328 328 327 328 328 327 327 328 324 319 318 321 323 323 323 323 323
314 314 313 312 310 307 306 306 305 304 304 303 303 302 304 305 304 305 306 307 309 310 311 312 313 314 315 316 316 317 318 319 319 319 320 320 321 321 322 322 323 323 324 325 325 326 326 326 327 328 330 331 330 331 331 331 332 331 331 331 330 329 328 329 329 329 329 329 328 328 327 327 328 328 327 328 326 321 317 320 322 322 323 323 323
313 312 310 306 304 303 302 301 300 299 299 299 299 299 299 299 299 301 302 302 304 305 307 309 311 312 312 313 313 314 315 316 317 317 317 318 318 319 319 319 320 320 321 322 323 324 325 325 327 327 328 329 329 330 331 331 332 332 331 331 330 330 329 328 329 329 329 329 328 328 328 327 327 328 327 327 328 324 319 319 321 322 323 323 322
311 309 305 302 300 299 298 298 298 298 298 298 298 298 298 298 298 298 298 298 298 299 301 304 305 308 309 309 311 312 313 313 313 314 314 315 316 316 317 317 317 318 318 319 320 322 323 324 325 326 327 328 328 329 329 329 330 330 331 332 331 331 330 329 328 329 329 329 328 329 328 327 327 328 327 326 328 327 322 319 320 321 322 322 322
306 302 300 298 298 297 297 297 297 297 297 297 297 297 297 299 298 297 297 299 299 297 299 302 302 304 306 307 309 311 311 310 310 311 311 312 313 314 314 314 315 315 316 316 317 319 320 321 321 322 325 326 326 327 328 328 327 328 330 331 331 331 330 329 328 329 329 329 329 329 328 328 327 327 327 327 327 328 325 320 319 321 321 321 322
300 298 297 297 296 296 296 296 296 296 296 296 296 296 296 298 297 296 297 300 302 300 300 303 303 304 305 305 308 310 309 307 306 308 310 310 311 311 311 311 312 313 313 314 315 316 317 318 318 319 320 322 323 323 324 326 326 327 327 328 330 330 329 328 328 328 329 329 329 329 328 328 328 327 327 327 326 327 327 323 320 321 321 320 320
297 296 296 296 296 296 295 295 296 296 296 296 296 296 296 296 296 296 297 301 306 304 301 301 302 303 305 306 308 309 307 305 305 306 308 309 309 309 309 309 310 311 311 312 312 312 313 314 315 316 316 317 319 319 320 322 324 325 325 327 328 329 329 328 328 328 328 329 329 329 328 328 327 328 326 327 327 326 327 325 321 321 321 320 318
297 296 296 296 295 295 295 295 295 295 296 295 295 295 296 295 295 295 296 300 304 303 300 300 300 302 305 307 308 308 306 305 305 306 307 307 307 307 307 307 308 309 309 309 309 310 310 309 309 310 311 312 314 316 317 319 321 323 324 326 327 327 328 329 328 327 327 328 329 328 328 328 327 328 327 327 327 326 327 327 324 322 321 319 316
297 298 298 297 297 297 296 296 295 295 295 295 295 295 295 295 295 295 296 298 301 302 302 302 300 300 304 306 306 306 305 305 305 305 305 306 305 305 306 306 306 307 307 307 308 308 308 308 305 302 302 305 306 310 314 317 320 322 322 324 326 325 326 327 326 326 326 327 328 328 328 328 328 327 327 327 327 326 326 327 326 325 322 319 316
297 298 299 299 298 298 298 297 296 295 295 295 295 295 295 295 295 295 295 297 300 301 302 303 302 301 303 305 305 304 303 304 304 304 304 304 303 303 303 304 305 305 305 305 306 306 305 306 306 303 299 300 301 303 310 315 317 320 321 323 326 327 326 326 325 326 326 327 328 328 328 329 328 328 327 327 327 326 326 326 326 326 324 320 316
298 298 298 299 299 298 298 296 295 295 295 295 295 295 295 295 295 295 295 296 299 300 301 303 304 303 304 305 304 303 303 303 302 302 303 302 301 300 301 302 303 303 304 304 304 304 303 302 304 304 300 300 302 301 304 309 313 318 320 322 326 328 327 325 325 325 326 327 328 328 328 329 328 328 328 328 327 326 325 325 326 326 326 322 316
298 298 298 299 300 299 297 295 295 295 294 294 295 295 295 296 297 297 297 297 299 301 302 303 303 303 304 303 303 303 302 302 302 301 301 300 299 298 299 300 301 301 302 303 303 303 303 301 301 303 301 303 306 303 300 303 308 316 319 321 324 327 326 325 325 326 326 327 328 328 328 329 329 328 327 327 327 326 326 325 325 326 326 325 319
297 298 298 298 299 299 297 295 294 294 294 294 295 294 294 297 299 299 299 300 301 302 303 303 302 303 303 303 302 302 301 301 301 300 299 298 298 298 298 299 299 299 300 301 301 302 302 302 302 303 303 304 305 305 304 304 305 310 316 320 323 326 326 326 325 326 328 328 327 327 328 329 329 328 327 328 327 326 326 325 326 325 326 326 322
297 297 298 298 298 298 297 295 294 294 294 294 294 294 294 296 299 300 300 301 303 303 303 302 302 302 302 302 302 301 301 300 300 299 298 298 298 298 298 298 298 298 299 299 300 300 301 302 302 303 304 304 305 306 307 307 305 308 312 317 321 325 326 327 325 324 326 327 326 326 327 328 329 328 327 327 327 327 326 325 326 326 325 326 325
297 296 297 299 299 298 296 295 294 294 294 294 294 294 294 294 298 300 300 301 303 303 302 302 302 302 301 301 301 300 300 299 299 298 297 297 297 297 297 297 298 298 298 298 299 299 300 301 302 302 303 304 305 306 307 308 308 310 311 313 318 323 325 327 326 323 323 324 325 325 327 327 328 328 326 326 327 328 327 325 325 326 325 325 326
295 295 295 297 298 297 295 294 294 294 294 294 294 294 295 294 296 299 300 301 303 302 302 302 302 301 301 300 300 299 299 298 298 297 297 297 296 296 296 297 297 297 297 298 298 299 299 300 300 301 302 303 304 305 306 307 309 310 310 311 315 319 323 325 326 325 322 322 324 325 326 327 328 328 327 326 327 328 328 326 325 325 325 324 325
295 295 295 296 296 295 294 293 294 294 294 294 294 294 295 294 295 300 301 302 303 302 301 302 301 301 300 300 299 299 298 297 297 297 297 296 296 296 296 296 297 297 297 297 298 298 298 299 299 300 301 302 303 304 305 306 307 308 311 312 312 315 320 322 324 325 324 322 323 325 326 327 327 327 327 327 327 328 327 327 325 325 326 325 324
295 296 297 297 297 295 294 293 293 294 293 294 294 294 295 294 295 300 302 302 302 302 301 301 300 300 299 299 299 298 298 297 296 296 296 295 295 295 296 296 296 296 296 297 297 298 298 299 299 300 300 301 302 302 303 304 306 307 308 309 310 311 314 317 320 323 323 322 323 324 325 327 327 326 326 326 326 327 327 326 325 324 325 326 325
295 296 298 299 299 297 295 294 293 293 293 293 294 293 294 294 295 300 302 301 301 301 301 300 300 299 299 298 298 298 297 297 296 296 296 295 295 295 296 296 296 296 296 296 297 298 298 298 299 299 300 300 300 301 302 303 304 305 305 307 308 309 311 314 316 320 322 322 323 323 325 326 327 326 325 323 323 324 327 328 326 324 324 325 325
294 295 297 299 299 297 296 294 293 293 293 293 293 293 294 294 295 299 301 301 301 301 300 300 299 299 298 298 298 297 297 297 296 296 295 295 295 296 296 296 296 296 296 297 297 297 297 298 298 298 299 299 300 300 301 302 303 303 304 306 307 308 308 310 313 318 322 322 322 323 324 324 325 326 326 325 323 323 326 328 328 326 324 324 325
293 294 296 297 297 297 296 293 292 293 293 293 294 293 294 295 295 299 300 300 300 300 299 299 299 298 298 297 297 297 297 297 297 296 295 295 295 296 296 296 296 296 296 296 297 297 297 297 297 298 298 299 299 300 300 301 301 302 303 304 305 305 306 307 310 314 320 321 321 323 323 322 324 326 326 326 325 325 326 328 328 327 324 323 325
293 294 295 296 298 300 297 293 292 293 293 293 294 293 294 294 296 298 300 300 300 300 299 299 298 298 298 297 297 297 296 296 296 295 294 295 295 295 296 296 296 296 296 296 296 296 297 297 297 298 298 298 298 299 299 300 300 301 301 302 302 303 304 306 307 311 316 319 320 322 324 324 325 327 327 326 325 326 327 327 328 328 325 323 324
293 293 294 295 298 301 300 295 292 293 293 293 293 293 294 294 296 299 300 300 299 299 299 298 298 298 297 297 296 296 296 296 295 294 294 294 295 295 296 296 296 296 296 296 296 296 297 297 297 297 297 297 297 297 298 299 299 299 300 300 301 301 303 305 306 308 312 316 318 320 322 324 325 326 327 326 326 325 326 326 328 328 326 324 323
294 294 294 294 296 300 301 298 293 292 293 293 293 293 294 294 296 298 299 299 299 299 299 298 298 297 297 296 296 296 295 295 294 293 294 294 295 295 295 296 296 296 296 296 296 296 296 296 296 296 296 296 296 296 297 298 298 298 298 299 300 301 302 303 304 307 310 314 316 317 319 322 324 324 325 325 326 325 325 325 326 327 327 325 323
296 295 294 294 294 297 300 300 295 292 292 293 292 293 293 295 296 298 299 299 299 299 298 298 298 297 297 296 296 295 295 294 293 293 294 294 295 295 295 295 296 296 296 296 296 296 297 296 296 296 296 296 296 296 297 298 298 298 299 299 300 301 301 303 305 307 310 313 315 315 317 321 323 323 323 323 325 325 325 325 326 326 326 325 322
296 296 295 295 294 294 296 299 297 293 291 292 292 292 293 294 296 298 298 298 299 299 298 298 297 297 297 296 296 295 294 293 293 293 293 294 294 295 295 295 295 296 297 297 297 297 297 297 297 296 296 296 296 296 297 297 298 298 299 300 300 301 301 303 305 307 310 312 314 315 318 321 322 323 324 323 323 325 325 325 326 326 325 324 323
297 297 296 295 294 292 292 295 297 295 292 291 292 292 292 293 294 297 298 298 298 298 298 297 297 297 296 296 295 295 294 293 293 293 293 293 294 295 295 295 295 295 296 297 297 297 297 297 297 296 296 296 296 296 297 297 297 298 298 299 300 301 302 303 305 306 309 312 313 315 318 321 322 324 323 322 322 324 324 324 326 325 324 324 323
299 299 298 297 296 294 291 291 294 295 293 291 291 292 292 292 293 295 297 296 297 298 298 297 297 297 296 296 296 295 294 293 293 294 293 293 293 294 295 295 294 295 295 295 296 297 297 297 297 296 296 296 295 296 297 297 297 297 298 299 300 301 302 303 304 306 308 312 314 316 318 321 322 323 322 322 322 323 323 324 324 325 324 324 324
299 298 298 299 297 296 295 292 292 293 292 291 291 291 292 292 292 294 295 295 296 297 298 297 297 297 296 296 296 295 294 293 293 294 294 293 293 294 294 294 294 295 295 295 295 296 296 297 296 296 296 296 295 296 296 297 297 297 297 298 299 300 302 303 304 306 308 311 314 316 318 321 322 322 323 323 322 322 322 323 324 324 324 324 324
Wind_Speed
1 1 2 2 3 2 1 2 2 2 3 3 3 4 3 4 5 5 6 6 7 8 8 8 9 10 11 10 11 12 13 14 15 14 14 14 15 18 19 18 17 16 16 16 17 16 17 17 17 14 11 12 11 10 10 11 11 10 9 9 11 9 7 6 5 5 4 3 3 2 2 2 3 3 4 3 3 4 6 8 9 9 10 9 9
1 1 2 2 2 2 2 2 3 3 2 3 4 4 4 4 5 5 6 7 7 7 8 9 10 10 10 11 11 12 13 14 13 13 14 14 14 17 19 20 18 17 18 18 19 19 18 18 18 16 13 14 13 11 10 11 12 11 10 10 11 10 8 7 6 6 5 4 4 3 3 2 2 3 4 4 4 4 5 7 8 9 10 10 9
1 1 1 2 2 2 2 2 3 5 4 4 5 5 5 5 5 6 6 8 8 7 9 10 10 11 11 11 12 12 13 13 13 14 15 15 16 16 18 21 21 19 20 20 20 20 20 19 19 18 16 15 15 14 11 11 13 13 11 10 11 10 9 8 8 8 7 5 5 4 4 3 3 3 3 4 5 5 5 6 8 10 10 10 10
0 1 1 2 2 3 3 3 4 5 4 4 5 6 5 5 6 7 8 8 8 8 9 10 10 11 11 11 12 13 13 14 16 15 15 15 16 16 17 19 22 21 21 21 20 21 21 20 19 19 18 17 16 14 13 13 13 13 13 12 11 11 10 9 9 9 8 7 6 5 5 4 4 3 3 4 6 6 6 6 7 9 10 10 9
0 1 1 2 3 3 4 4 5 5 5 5 5 6 6 6 7 7 8 9 9 9 9 10 10 10 11 11 12 13 13 15 16 16 16 16 17 19 18 17 19 21 22 21 21 21 21 20 20 20 19 19 18 15 14 14 13 13 14 14 12 11 11 10 10 10 9 8 8 7 6 5 4 4 5 5 6 7 6 6 6 7 9 8 8
1 1 1 2 3 4 5 5 5 5 5 6 5 6 6 7 7 7 8 9 9 8 9 10 11 11 11 12 12 13 14 15 15 16 16 16 18 20 19 17 16 20 22 21 22 22 20 19 20 20 20 20 19 18 16 16 15 16 16 15 14 13 12 11 11 10 10 9 9 9 7 6 5 5 6 7 7 7 6 6 6 7 8 8 7
1 1 2 2 3 4 5 5 6 6 6 6 6 6 6 7 8 8 9 10 9 9 10 10 11 12 12 13 13 14 15 15 16 16 16 16 17 17 18 18 17 19 20 19 21 22 20 20 20 19 20 21 21 20 19 17 18 19 17 16 15 14 13 13 12 11 11 10 10 10 9 8 7 6 7 8 7 7 7 6 7 7 8 8 8
1 1 1 2 2 3 5 6 6 6 6 6 6 6 7 8 8 10 10 10 10 10 11 11 12 12 13 14 14 15 16 16 17 17 16 17 17 17 18 18 17 18 18 18 20 22 22 22 21 20 21 21 22 22 21 21 21 21 19 17 16 15 14 14 13 13 12 11 11 11 11 11 9 8 9 9 7 7 7 7 7 7 7 8 9
0 1 2 2 3 4 5 6 6 6 6 6 6 6 8 8 9 9 10 10 11 11 11 12 12 12 14 15 15 16 17 17 17 18 18 18 17 18 18 17 17 18 18 18 18 19 21 22 22 22 22 21 22 23 23 23 22 22 20 18 17 16 15 15 14 14 13 12 12 11 12 13 12 10 11 10 9 8 8 7 7 7 7 8 9
1 2 2 2 3 4 5 6 6 6 6 6 7 6 7 9 10 10 10 10 11 11 12 13 14 13 14 14 15 17 16 15 16 16 17 17 16 16 17 17 16 16 16 17 17 17 20 22 22 22 23 23 23 23 24 24 24 24 22 19 18 17 16 16 15 15 15 14 13 12 12 14 14 13 12 12 11 10 9 9 8 8 8 9 9
1 2 2 2 3 4 5 5 5 6 6 6 7 7 8 10 11 12 11 11 11 11 12 13 14 14 14 14 14 15 14 14 14 14 14 15 15 16 16 16 15 15 15 16 16 17 19 22 23 23 24 24 23 23 24 25 25 25 23 20 20 20 19 18 17 16 15 15 15 14 14 15 16 15 14 13 14 12 10 10 10 9 9 10 9
1 2 2 2 2 3 4 5 5 5 6 6 6 7 8 9 10 10 10 10 10 11 12 13 14 15 15 15 15 15 15 15 14 13 13 14 14 15 15 15 15 15 15 16 17 18 19 21 23 24 25 25 24 22 22 24 25 25 24 23 22 22 21 20 19 18 17 15 16 16 16 16 17 18 16 15 15 13 11 12 12 11 10 9 10
1 0 1 1 1 3 4 4 4 5 5 5 6 6 7 7 8 8 8 9 10 11 12 13 14 14 15 16 17 16 15 15 15 14 14 13 13 14 15 16 16 16 17 18 19 20 19 20 21 22 23 24 24 22 21 22 24 25 25 25 25 24 23 22 22 20 19 17 15 17 18 17 18 20 19 17 16 14 14 14 13 12 10 9 10
2 3 4 4 3 3 3 4 5 5 5 6 6 6 6 6 6 7 7 8 9 10 13 13 12 13 16 17 16 14 12 13 14 13 12 13 14 14 15 16 17 17 18 19 20 20 19 18 19 21 22 22 22 23 23 23 24 25 25 26 26 26 26 25 24 23 22 20 18 17 17 16 17 21 21 18 18 16 16 16 15 14 12 10 11
5 5 6 6 5 5 5 7 8 8 9 9 9 8 8 8 8 8 8 8 8 8 11 12 12 14 15 16 15 15 14 10 9 11 14 16 16 14 15 16 17 17 18 18 18 19 19 19 19 20 21 22 23 25 25 25 25 25 25 25 27 28 28 27 26 26 24 22 21 19 18 16 15 20 22 20 20 19 18 18 17 16 13 12 12
7 6 6 6 7 6 6 8 10 10 11 11 12 11 11 12 12 12 12 12 11 10 8 8 11 13 13 15 15 14 13 10 12 16 16 15 15 14 16 19 18 18 19 19 18 18 19 20 20 20 21 23 25 25 24 25 26 27 26 25 26 29 30 30 29 28 27 24 22 21 20 17 15 18 21 22 22 21 20 20 19 19 15 13 14
7 7 7 8 9 9 7 7 7 9 10 10 11 11 11 12 12 13 13 13 14 14 11 9 10 11 11 15 13 11 14 16 19 20 16 13 14 15 17 18 18 19 20 19 19 18 19 19 20 22 22 23 25 25 25 25 25 27 27 26 26 28 30 31 31 29 29 27 25 23 23 21 16 16 19 23 25 22 22 21 20 21 17 14 15
9 9 10 11 11 11 9 7 6 8 8 8 8 9 10 10 11 11 11 11 12 13 13 11 11 10 10 13 12 12 18 21 21 20 19 18 17 16 17 17 18 19 19 19 19 19 20 20 21 22 23 25 25 25 26 25 24 25 27 28 27 27 30 32 33 32 31 30 28 26 25 24 21 17 18 23 26 24 23 23 22 22 20 16 16
11 12 12 13 12 10 9 7 6 6 6 6 6 7 7 7 8 8 8 8 9 10 11 11 11 9 9 12 13 13 16 18 20 21 22 22 19 18 18 17 17 17 18 19 19 20 21 23 23 22 23 25 25 26 27 25 26 26 27 29 29 28 29 31 34 34 33 32 31 29 27 26 25 22 18 21 27 26 24 24 24 23 22 19 17
12 11 9 8 7 6 5 5 4 4 5 4 4 5 4 4 5 5 5 5 6 7 9 10 11 11 11 12 13 13 14 16 18 20 22 24 23 21 18 17 18 18 19 19 20 21 22 23 23 22 23 25 25 26 27 25 28 29 27 28 30 30 29 30 33 35 35 33 31 30 29 27 27 26 22 21 25 28 26 25 25 24 23 22 19
9 5 4 5 5 5 6 7 7 7 6 4 4 6 6 6 7 7 6 5 5 6 7 8 10 11 12 12 12 13 14 15 16 17 20 22 23 21 20 20 21 21 19 19 20 20 21 22 23 23 24 26 26 26 26 27 29 29 28 28 29 30 30 31 33 35 36 35 32 30 30 30 29 29 26 23 24 28 28 27 27 25 24 23 21
4 5 6 6 6 7 7 8 9 8 7 6 6 7 7 7 7 7 7 6 6 5 5 7 8 9 10 11 12 13 14 15 16 18 19 20 22 23 23 23 23 23 20 19 20 21 21 22 24 24 25 26 25 25 26 28 30 29 29 28 28 29 30 31 33 35 36 36 35 32 31 32 32 31 30 27 25 27 29 29 28 27 26 24 23
5 6 6 6 7 9 9 10 9 9 8 8 8 9 8 7 8 8 8 8 7 6 6 7 7 7 8 9 10 11 13 14 16 18 19 20 22 24 24 23 24 24 22 21 22 22 23 24 24 24 24 26 25 25 27 29 30 31 31 29 30 30 30 31 32 35 37 37 36 35 35 35 34 33 33 31 27 27 29 30 29 29 28 26 25
5 6 7 9 10 10 10 10 10 9 9 9 9 10 9 8 9 9 9 8 8 8 7 8 8 8 9 9 9 10 10 12 14 15 17 18 20 22 23 23 24 25 24 24 24 22 22 23 24 23 22 25 25 24 28 30 28 31 33 31 31 31 30 30 32 33 36 39 39 38 38 37 35 35 35 33 30 27 28 30 31 31 29 28 27
6 6 9 11 11 11 11 10 10 10 10 10 10 10 10 11 11 10 10 10 10 10 9 9 9 9 10 10 10 10 10 11 13 14 15 16 18 20 22 23 24 25 25 25 24 23 22 21 21 21 23 24 23 23 28 31 29 31 33 32 31 31 29 29 31 32 34 38 41 40 40 39 38 37 36 35 33 31 29 30 32 32 31 31 30
7 8 11 12 12 11 11 11 11 11 11 11 11 11 12 13 14 14 14 15 16 15 13 13 13 11 12 12 11 11 12 12 13 14 15 16 17 19 22 24 25 25 26 25 25 25 24 22 21 21 24 26 25 24 25 27 27 28 30 32 33 31 28 28 29 30 31 35 40 42 42 41 39 38 37 36 36 34 32 32 33 33 33 33 33
10 11 11 11 12 12 12 12 12 13 13 13 13 14 15 15 16 16 16 17 17 18 16 16 16 14 14 13 13 13 13 13 14 14 15 16 16 18 21 24 27 27 26 26 26 28 27 27 28 25 22 26 29 27 26 26 26 26 26 29 31 30 28 27 28 29 30 33 38 43 43 41 40 40 38 37 37 37 35 34 35 36 35 35 34
12 12 12 12 13 14 13 14 15 15 15 16 16 17 17 17 17 17 17 17 16 17 17 15 15 14 14 14 13 13 14 15 15 14 14 15 16 17 18 20 24 27 27 26 27 31 32 30 31 32 27 26 29 31 31 30 27 26 27 27 28 29 29 28 28 29 30 32 37 42 45 43 41 41 40 38 38 38 38 37 37 37 37 36 35
14 13 13 13 14 15 16 16 16 16 17 18 18 19 19 19 19 19 18 17 14 14 16 16 15 15 14 14 13 12 14 16 15 15 15 15 16 17 17 17 20 23 26 27 26 30 35 32 30 36 37 32 33 35 35 33 30 27 27 26 26 28 29 27 27 28 30 33 37 41 45 45 43 42 41 40 39 39 39 39 38 39 39 38 36
14 14 14 14 15 16 17 18 18 18 18 19 20 20 20 20 20 20 20 17 14 14 16 17 16 15 14 14 13 13 14 16 15 15 15 15 16 17 17 17 18 20 22 27 28 26 32 35 33 36 39 38 38 38 37 36 34 30 28 28 27 27 27 28 29 29 30 33 36 38 42 45 45 44 43 42 41 41 40 40 40 40 41 39 37
14 14 14 14 15 16 17 18 18 18 19 20 20 20 20 21 21 21 20 18 16 15 16 16 16 16 15 14 13 14 15 15 15 16 16 16 17 17 18 18 18 19 20 24 28 28 29 34 37 38 40 39 38 38 37 35 32 30 29 31 32 28 26 30 33 33 32 32 34 35 39 45 48 47 45 45 44 42 41 41 42 42 41 39 37
14 14 14 13 15 16 16 17 18 19 19 20 20 20 21 21 21 21 20 19 16 15 15 15 16 16 15 14 15 15 16 16 16 17 16 17 18 19 19 19 18 20 21 22 28 31 31 31 34 38 41 41 39 36 34 31 30 30 29 29 31 29 27 29 33 36 36 34 33 34 38 44 48 48 48 47 46 44 43 42 43 43 42 39 35
13 14 14 14 15 15 16 16 18 19 19 20 20 21 21 21 21 21 21 19 17 16 15 14 15 15 15 14 15 16 17 17 17 18 17 18 20 21 20 19 19 20 21 23 27 31 34 35 33 35 39 40 39 37 35 31 30 30 29 26 27 30 30 29 32 35 35 33 32 34 38 43 46 48 50 49 48 47 45 44 43 44 44 40 35
13 13 13 14 14 14 15 17 18 18 19 20 20 21 21 20 20 20 21 20 18 16 16 15 14 14 14 14 15 16 17 17 17 17 18 20 22 23 22 21 21 21 22 23 27 30 34 37 37 37 38 36 35 38 38 34 30 28 29 27 27 30 32 30 29 31 31 30 32 34 38 42 44 47 51 50 50 49 47 45 44 44 46 43 36
14 14 13 13 14 13 15 16 17 18 18 19 20 20 20 19 18 18 19 18 17 15 14 14 15 15 15 15 15 17 17 17 17 18 19 21 22 22 23 24 23 24 24 23 25 29 32 36 37 36 36 35 35 36 36 35 32 29 29 28 26 30 32 30 28 29 31 30 30 32 37 41 43 47 51 51 50 50 48 46 45 45 47 46 39
13 14 13 14 14 13 14 16 17 17 18 19 19 19 19 19 16 16 17 15 14 14 14 14 15 15 15 16 16 17 17 17 18 19 19 21 22 21 22 24 24 24 25 25 25 28 31 34 35 34 33 35 36 34 33 35 35 31 30 29 26 27 30 30 27 26 30 32 31 31 35 39 41 45 51 52 50 50 49 47 47 47 47 47 43
13 13 13 14 13 13 14 16 17 17 18 18 19 19 19 19 17 15 16 15 13 13 14 14 14 15 15 16 16 17 17 18 19 19 19 21 22 23 24 24 23 23 25 27 27 28 30 32 35 34 32 32 33 33 31 32 33 32 32 30 27 26 28 29 28 26 29 33 33 32 33 37 40 43 50 53 50 49 49 49 49 48 47 48 46
13 13 14 14 12 12 14 16 17 17 18 18 18 19 19 18 17 16 16 16 13 13 14 13 14 15 15 16 16 17 17 19 21 21 21 22 24 27 29 27 25 25 27 28 27 27 29 31 33 33 32 31 32 33 32 30 31 32 33 32 29 26 24 26 30 30 28 30 31 31 33 36 38 42 49 53 52 49 48 50 50 48 48 48 48
14 13 14 14 13 14 15 17 18 18 18 19 19 20 19 18 18 16 15 14 13 14 14 13 14 15 15 16 16 16 17 19 20 20 20 23 28 31 31 30 30 30 29 28 27 27 28 29 31 32 32 31 31 32 33 30 30 29 28 30 32 30 25 24 27 28 27 28 28 29 31 33 34 39 45 49 49 46 45 48 50 49 49 48 48
14 14 14 14 14 15 16 18 19 19 19 20 20 20 19 18 17 15 14 13 13 13 14 13 14 15 16 16 15 16 17 19 22 21 22 28 33 34 33 32 32 31 29 28 28 28 28 29 31 32 32 32 31 31 32 31 30 29 27 29 34 34 31 28 27 26 28 29 27 26 29 32 33 38 43 45 44 44 44 47 50 51 51 50 48
15 14 13 12 12 14 17 18 19 19 20 21 21 21 19 18 16 13 13 13 13 13 13 14 14 15 16 16 16 17 19 22 25 25 27 34 37 36 35 33 30 28 27 28 29 29 29 30 31 32 32 32 31 31 32 31 31 32 32 31 32 33 32 32 31 28 27 28 27 27 28 31 33 36 42 46 47 47 46 48 51 53 53 52 49
15 14 14 13 13 14 17 19 20 20 21 21 21 19 18 17 16 14 12 12 12 12 14 14 14 16 16 17 17 18 21 23 23 25 31 36 37 36 35 31 28 27 28 29 29 30 30 31 31 32 33 33 32 31 33 34 33 33 32 31 32 32 31 34 34 30 25 24 26 27 27 28 32 35 40 47 51 50 49 49 52 54 55 54 51
16 15 15 15 15 15 17 20 21 21 21 21 20 19 17 16 16 15 12 12 12 12 14 14 15 16 16 17 19 20 22 24 23 27 35 38 37 36 35 31 28 28 29 29 30 29 30 31 31 31 33 35 35 33 33 35 35 33 32 30 31 33 32 33 35 32 25 21 24 27 27 27 32 37 40 45 49 51 52 52 53 54 55 55 53
17 16 16 15 14 13 15 19 21 21 21 21 20 19 17 16 17 15 12 12 11 12 14 14 15 16 16 17 20 21 23 24 25 32 38 38 38 37 33 30 28 29 29 29 29 28 29 31 32 32 34 36 37 35 33 35 36 36 36 35 34 34 33 31 34 35 30 24 24 27 27 28 32 37 41 43 47 50 51 52 53 54 55 55 54
17 18 17 16 14 11 11 16 21 21 21 22 22 19 18 17 17 15 11 11 12 12 13 14 15 16 17 18 20 23 24 24 28 35 38 39 39 35 29 28 29 31 31 29 27 26 28 31 32 33 35 36 37 38 37 37 38 39 40 39 35 33 33 32 34 36 34 28 24 24 26 30 32 35 39 41 44 48 48 48 51 55 57 55 54
17 17 18 17 16 13 9 12 19 22 21 23 23 20 18 18 18 16 12 11 12 13 13 14 15 16 17 18 20 23 24 24 29 34 36 38 38 31 27 29 31 34 32 28 28 28 29 30 30 33 35 34 36 39 39 38 38 38 38 39 38 36 36 37 39 40 37 31 27 26 28 31 32 32 35 37 40 44 46 46 49 55 61 58 54
15 15 17 17 16 14 9 8 15 21 22 22 23 23 20 18 19 17 13 11 12 13 13 14 15 15 17 18 20 23 24 24 29 34 37 40 36 28 28 31 32 35 33 29 31 32 31 31 30 31 34 33 34 37 37 37 37 36 36 37 38 38 38 40 42 42 38 32 30 30 30 30 31 31 31 32 35 40 43 45 46 52 62 65 59
15 15 15 16 16 15 13 9 11 19 22 22 23 24 23 20 19 16 14 12 12 13 14 15 15 16 18 20 20 24 26 26 28 31 37 41 35 27 28 32 34 38 37 34 34 34 33 33 32 32 33 34 33 34 34 34 33 32 32 34 35 35 35 38 41 42 39 32 29 30 30 30 30 30 28 27 32 37 40 43 44 46 56 65 63
12 13 13 14 15 17 17 14 11 14 21 23 22 23 24 23 20 17 14 14 13 13 15 15 15 17 21 23 23 26 29 29 27 29 35 40 36 28 28 33 38 41 41 39 37 36 36 35 34 35 36 36 34 32 31 30 28 27 28 31 32 31 30 33 37 39 38 34 29 27 28 29 29 29 27 26 30 34 37 41 43 42 48 60 63
10 10 10 10 12 15 18 18 15 13 19 23 23 23 23 23 22 19 16 15 14 13 15 16 15 17 20 23 25 27 29 29 27 28 31 36 37 31 28 35 42 44 43 42 41 40 40 38 37 38 39 39 37 33 29 26 24 23 23 26 28 28 28 30 33 35 36 35 30 26 26 27 27 28 28 26 29 33 35 38 41 40 44 55 61
9 8 8 8 9 11 14 18 19 17 19 22 23 23 23 23 23 20 17 17 16 13 14 16 16 16 18 21 23 26 28 28 28 28 29 33 37 33 31 39 46 45 43 42 42 43 42 40 40 41 42 43 42 37 31 27 22 19 19 22 24 25 26 29 30 30 32 33 28 23 24 27 27 28 28 27 28 32 34 37 40 39 42 53 60
Wind_Direction
267 287 299 300 296 309 325 308 305 289 297 318 307 296 292 288 287 284 282 277 275 275 273 272 272 275 278 272 266 266 269 275 277 275 274 271 269 276 279 279 280 278 279 286 290 294 294 296 296 285 283 299 300 291 290 290 291 283 274 278 283 282 269 260 249 230 232 243 237 233 216 212 218 222 220 207 206 202 197 203 196 190 193 198 213
255 280 286 295 306 319 319 314 312 303 305 307 294 290 286 282 282 282 286 280 274 276 277 276 277 276 274 276 275 273 276 282 282 278 279 275 269 274 280 284 286 280 280 284 288 290 289 289 290 285 279 286 291 287 287 288 289 286 275 273 277 277 266 254 247 234 229 235 232 232 223 208 218 224 220 210 200 188 190 199 192 185 186 193 208
266 297 298 306 313 318 315 319 312 310 315 305 302 307 295 283 275 269 275 275 266 269 279 279 280 281 278 279 277 272 276 280 278 277 278 276 272 274 279 285 289 286 285 285 284 284 284 285 284 282 277 276 280 282 286 287 285 285 277 272 274 273 263 251 246 241 230 227 227 223 216 214 222 224 217 201 189 181 179 184 184 183 183 190 204
280 313 326 325 328 333 324 321 317 316 319 311 309 312 306 299 289 283 288 285 277 279 285 282 282 285 283 285 280 276 280 279 280 281 278 278 279 276 274 281 288 291 292 289 286 284 281 280 278 277 273 273 276 273 279 286 283 280 276 272 270 269 263 250 245 244 234 224 222 216 208 212 221 216 205 188 179 174 166 165 174 181 184 190 199
351 349 4 348 345 345 339 333 330 331 327 322 322 323 323 315 307 306 302 293 289 289 289 286 287 289 287 289 286 283 284 281 284 287 283 283 282 279 274 276 287 293 293 292 290 289 285 279 274 272 268 270 272 262 267 280 283 276 272 271 266 263 262 251 243 242 235 224 216 212 207 207 215 204 193 184 171 165 161 161 165 175 184 187 188
329 359 21 4 360 353 350 345 337 337 333 329 328 325 322 316 314 313 302 301 300 294 291 287 286 287 286 286 285 285 285 283 285 285 286 285 282 284 283 282 283 284 286 289 291 291 289 284 277 271 266 267 267 266 269 272 279 278 270 268 264 259 258 249 244 238 231 227 218 211 207 207 212 200 188 180 167 161 164 169 166 165 172 175 176
347 21 38 16 1 345 339 331 327 331 326 322 321 316 310 308 310 304 299 306 305 294 291 288 287 287 284 283 282 282 282 283 283 283 285 284 283 285 283 283 280 278 281 286 289 289 289 287 281 274 270 267 264 269 269 265 275 277 268 264 259 257 254 245 242 238 232 229 222 212 206 206 210 204 189 182 176 169 164 168 166 158 156 161 162
30 353 8 1 336 320 312 309 314 319 315 315 317 313 306 302 301 299 299 301 300 301 297 292 292 290 287 287 286 285 285 284 283 284 284 281 281 279 275 278 279 280 281 279 281 284 285 284 280 278 275 269 264 265 266 267 275 276 268 259 252 251 252 247 242 237 233 231 224 214 208 205 206 208 196 188 190 185 175 171 166 160 155 156 157
303 289 311 314 306 302 300 307 312 310 309 309 311 312 306 302 298 297 300 300 303 306 300 296 296 292 290 292 291 290 291 289 286 286 286 284 284 283 283 284 279 279 282 280 279 283 284 282 279 278 276 271 265 263 263 266 271 272 267 257 249 251 250 247 245 240 234 229 226 219 212 206 203 208 204 196 198 197 191 185 171 166 162 158 158
298 297 302 308 310 305 305 314 316 311 311 308 308 309 304 303 301 300 302 302 304 302 296 298 298 295 293 292 292 293 294 292 289 289 288 288 287 286 289 289 283 279 281 280 279 280 280 279 279 277 275 273 266 261 260 261 266 270 266 255 251 253 250 247 248 247 239 228 226 224 220 213 205 205 207 204 204 199 196 196 188 178 173 169 165
329 311 301 316 321 320 320 320 318 313 311 307 308 310 309 312 310 309 311 309 306 302 300 302 303 304 304 301 298 295 294 294 295 294 288 287 288 290 291 291 288 284 281 281 280 281 280 279 280 276 273 274 270 262 259 258 261 266 264 252 246 248 250 249 248 253 246 230 224 223 223 220 212 207 204 208 209 203 199 203 205 197 184 179 175
26 347 323 329 325 324 320 319 323 315 309 309 312 316 315 317 315 313 314 313 313 310 308 310 312 314 314 312 311 307 302 301 305 305 297 292 291 291 290 288 286 283 283 288 287 286 284 281 280 278 273 274 274 265 258 258 259 261 261 252 244 243 243 243 244 250 250 238 227 222 224 224 218 211 204 206 211 206 201 205 212 209 194 187 183
74 8 286 283 306 317 312 311 310 305 306 304 302 306 310 312 314 315 315 314 316 314 313 317 320 318 315 312 310 309 305 299 304 308 303 297 292 288 287 287 287 289 293 297 295 292 288 280 277 278 274 271 273 268 262 263 260 257 256 253 246 241 239 239 239 241 245 247 237 226 227 227 219 216 209 206 209 206 203 206 213 212 204 198 192
221 225 237 238 237 252 270 275 269 268 271 269 273 280 285 291 301 309 313 313 315 314 315 321 321 315 314 312 311 311 303 289 289 298 300 296 293 289 284 286 293 300 303 299 297 295 289 280 272 273 272 269 270 269 266 264 263 258 253 250 247 241 237 238 237 234 236 243 242 233 231 232 223 219 214 207 206 207 205 206 212 216 213 211 202
264 259 263 266 264 254 246 252 255 255 257 262 268 271 275 281 290 300 301 302 309 313 313 317 317 315 316 313 312 313 308 298 289 297 306 303 297 287 281 285 290 295 295 290 289 289 288 286 277 272 271 268 266 266 265 262 265 264 254 247 246 242 238 236 235 233 232 235 240 238 236 238 231 222 216 208 205 207 207 207 212 219 219 218 213
285 283 283 287 293 288 274 265 263 264 268 274 277 276 279 283 285 289 294 299 300 294 295 308 314 317 318 312 310 307 305 314 314 307 308 302 290 282 285 291 292 295 297 293 289 285 284 285 281 276 271 268 267 265 264 263 263 264 258 250 244 242 240 236 234 232 230 230 233 235 234 236 234 224 217 208 205 207 209 208 211 220 221 220 217
281 283 285 288 292 296 298 294 288 280 276 280 283 281 284 289 288 288 295 304 304 299 296 301 303 303 309 310 311 307 303 312 315 309 306 301 293 289 291 292 289 293 297 294 290 286 283 281 278 278 274 272 270 266 266 265 260 259 258 253 244 241 240 238 235 232 228 227 229 231 230 230 229 226 221 211 206 207 209 209 211 219 222 219 218
276 284 290 290 291 294 291 295 310 302 293 291 292 288 285 291 297 296 299 298 299 305 308 306 300 297 300 301 299 298 301 307 309 307 305 303 299 295 293 292 288 290 292 289 287 285 283 281 277 277 276 275 273 269 270 268 261 255 254 254 251 243 238 237 235 233 229 226 227 229 227 227 226 225 225 215 208 208 209 210 212 219 221 220 220
284 289 291 289 292 296 295 302 318 325 337 333 315 308 296 292 298 303 308 302 298 308 313 309 304 299 290 283 282 285 293 302 304 303 305 303 302 300 298 296 293 291 290 288 288 286 284 284 281 278 275 275 275 274 273 267 260 259 257 255 254 248 240 236 235 234 233 229 226 226 225 226 225 223 225 219 211 209 210 210 212 217 221 223 224
293 293 295 302 310 318 334 357 12 31 26 358 337 352 352 336 329 327 327 322 315 314 314 311 308 305 295 284 283 287 294 299 299 300 303 302 301 302 301 298 294 294 293 291 290 288 287 288 287 281 275 273 273 273 273 266 260 264 262 252 250 251 243 236 236 236 236 234 228 225 223 223 224 222 222 221 215 212 211 211 210 213 218 224 227
305 319 358 15 18 17 33 45 52 64 57 30 21 22 18 12 4 358 351 339 323 313 310 312 313 309 306 307 307 306 306 304 304 307 308 307 306 306 307 305 301 299 297 296 294 291 289 288 287 283 278 275 272 269 270 267 264 265 262 254 252 255 249 239 236 237 237 236 231 226 223 222 222 222 221 221 218 215 213 212 211 211 215 221 226
346 39 43 37 37 40 52 58 58 64 62 52 37 26 25 21 11 5 2 355 345 336 323 323 324 312 310 321 324 319 317 315 317 319 315 316 316 313 313 311 309 307 304 301 299 295 291 288 286 283 279 276 272 267 265 265 267 266 260 256 255 257 254 245 238 237 236 235 233 229 225 222 221 221 222 222 219 217 215 213 213 213 213 218 224
44 51 40 39 53 60 67 68 64 63 59 53 40 32 36 30 13 8 7 3 358 356 348 339 334 327 331 339 334 326 324 322 320 320 319 318 316 314 313 313 311 309 308 305 302 298 294 292 289 283 279 278 276 273 268 264 264 266 263 260 261 262 259 251 243 239 237 234 232 231 228 224 221 221 222 221 219 218 217 214 213 215 213 215 222
54 49 48 61 72 73 72 69 64 58 50 47 42 35 38 32 20 15 11 5 2 358 356 349 340 339 345 347 339 331 328 323 319 319 319 316 313 311 310 312 311 308 307 307 306 302 297 294 292 288 283 281 279 275 271 266 261 264 266 264 263 265 261 254 249 246 242 235 230 230 230 227 222 220 220 221 221 219 216 214 214 216 214 215 221
53 53 66 75 77 72 67 62 58 54 46 45 45 39 42 39 29 26 20 16 14 6 360 355 348 346 348 346 342 342 339 330 324 322 319 317 316 312 311 311 309 307 307 307 307 304 298 296 297 295 292 287 283 279 275 271 264 260 263 263 262 264 262 257 254 253 248 239 230 228 230 228 225 222 220 220 221 218 214 212 214 216 215 216 220
65 74 81 80 73 65 63 60 57 56 52 52 52 46 48 46 36 34 33 30 26 20 13 8 4 360 356 352 350 350 346 335 331 331 326 323 321 318 317 314 309 308 307 306 306 304 299 298 298 300 303 299 294 289 287 289 283 269 262 262 261 261 262 261 259 256 252 242 233 228 228 228 226 225 223 221 219 218 215 211 212 216 216 217 221
87 87 84 80 75 68 65 63 61 61 58 56 56 52 52 49 41 38 40 38 33 29 27 19 13 10 4 1 357 350 346 340 339 339 332 326 324 321 321 319 315 313 311 309 307 302 298 299 296 296 303 303 300 296 294 301 304 291 275 266 263 263 264 264 261 257 253 246 236 229 228 227 225 224 225 223 220 220 220 213 210 215 217 219 222
95 89 83 80 80 75 70 66 63 62 61 58 57 55 54 52 45 40 44 42 32 28 29 24 18 15 10 9 5 352 342 339 340 342 337 332 329 325 324 322 319 316 314 313 309 302 300 304 301 295 296 302 303 299 295 295 301 303 296 285 273 269 269 266 260 255 252 250 242 233 228 226 225 223 222 223 222 222 223 217 211 213 217 219 222
96 91 85 81 81 78 72 68 64 62 62 60 59 57 55 53 48 43 44 42 28 21 25 25 23 19 13 10 7 355 344 342 344 346 343 338 333 329 327 325 320 317 314 312 310 305 302 306 306 299 299 302 300 298 298 294 292 298 302 297 283 274 272 266 261 258 254 252 248 239 230 226 225 224 222 221 221 221 223 222 215 213 217 220 222
96 92 86 81 79 77 72 68 65 62 61 61 59 57 54 52 50 45 45 43 31 23 24 23 22 20 15 9 4 354 347 348 348 347 347 342 335 332 329 326 320 316 314 309 307 306 305 306 307 304 304 306 304 301 300 297 295 297 297 293 287 282 278 269 264 263 260 255 252 246 236 229 225 224 222 220 220 220 221 222 219 215 215 219 222
98 92 85 80 76 72 69 66 63 60 59 59 57 56 54 51 49 45 43 41 33 27 23 18 17 20 17 11 4 356 352 354 351 347 349 343 337 335 330 327 323 316 314 310 304 304 306 306 308 310 310 310 311 309 303 300 301 300 295 290 288 288 284 274 266 263 260 257 253 249 241 233 226 223 223 220 219 220 220 221 221 219 216 218 222
96 93 87 81 75 69 65 62 60 58 56 56 55 53 52 49 47 45 43 39 32 26 23 15 13 16 16 10 3 358 357 357 353 349 349 343 338 339 333 329 326 320 317 313 306 304 306 306 307 310 313 313 313 314 312 306 301 297 294 290 288 289 286 279 270 264 261 257 252 248 243 238 229 222 222 221 218 218 219 219 221 222 219 217 219
93 92 88 82 75 69 65 61 59 57 55 54 53 50 49 47 43 41 40 38 33 27 23 17 10 10 11 8 3 360 358 356 353 350 348 344 341 341 339 332 327 324 321 316 311 307 307 311 310 310 315 316 313 313 315 311 303 300 297 291 285 285 286 283 275 265 260 257 254 249 244 241 234 223 220 221 219 217 217 219 221 222 221 217 214
97 90 84 81 74 67 63 61 59 56 53 52 50 48 47 43 37 33 32 32 28 23 20 15 10 9 8 7 4 0 358 355 352 350 346 345 345 346 345 339 330 326 323 318 313 309 308 312 314 314 316 316 311 311 314 314 310 305 299 294 287 284 285 286 276 263 259 260 258 252 244 241 237 226 219 219 220 217 217 219 220 222 223 220 214
95 89 84 80 76 68 61 58 56 54 51 49 47 45 44 40 33 27 26 25 20 18 17 12 10 11 8 7 5 0 358 354 349 348 348 349 349 347 344 340 333 327 325 320 314 310 307 309 312 313 313 312 310 311 313 313 312 307 300 294 288 286 287 287 278 264 261 266 264 257 248 241 236 228 218 218 220 218 216 218 219 221 223 222 216
89 88 84 77 72 67 60 57 54 51 48 46 44 42 41 40 35 26 22 21 16 14 14 10 10 11 7 6 4 358 356 354 350 349 350 349 348 344 339 336 331 326 324 321 315 310 308 307 308 308 309 309 309 310 310 311 312 311 305 295 286 286 289 287 282 269 262 266 268 262 252 242 237 227 217 216 219 219 217 217 219 221 222 222 219
88 85 83 77 69 62 58 55 51 48 46 43 40 38 37 38 38 31 22 22 18 12 14 12 9 9 7 6 3 357 356 356 353 351 349 348 346 343 339 335 330 325 322 318 315 311 308 306 306 307 308 308 308 309 310 310 311 311 308 300 287 283 287 286 282 275 267 267 267 263 255 246 237 226 217 216 218 219 219 219 219 221 222 223 221
89 82 79 78 71 60 54 50 47 44 42 40 36 35 32 32 38 35 24 22 18 11 16 14 8 8 7 5 1 357 356 356 353 350 348 346 345 343 340 336 330 325 321 318 316 312 308 306 307 308 309 310 309 309 309 310 310 308 309 307 295 284 288 289 285 281 275 272 269 263 257 248 236 225 219 218 218 218 220 221 221 221 222 223 222
88 79 74 71 65 58 52 47 43 38 37 37 33 32 29 26 34 34 19 16 16 11 14 13 7 8 6 4 1 357 357 356 351 348 347 344 344 343 341 336 331 326 322 320 318 314 311 309 309 309 309 310 309 308 308 309 309 307 308 309 301 288 283 286 288 287 280 275 273 264 255 250 238 225 220 219 218 218 221 222 221 221 222 222 222
87 79 73 67 59 54 49 44 41 35 33 32 29 30 28 23 32 35 16 12 17 11 10 11 8 6 4 2 360 356 355 352 348 346 343 341 341 341 340 337 332 328 324 321 319 316 313 310 309 309 309 309 308 308 309 310 310 307 306 307 304 298 292 287 286 287 282 277 275 267 258 252 242 227 220 220 219 218 222 224 222 220 221 222 222
85 81 78 73 63 55 47 42 39 34 32 31 26 25 24 21 29 35 17 10 16 10 6 10 6 2 2 360 356 354 353 349 346 343 339 340 342 341 340 337 334 330 325 321 319 317 314 311 309 308 307 307 307 308 308 308 307 305 305 305 304 302 301 294 284 278 280 279 274 267 261 256 250 236 224 221 220 221 224 225 223 221 220 221 222
86 83 83 80 71 59 49 42 39 35 32 31 27 24 24 23 29 38 22 9 13 10 6 9 5 359 359 357 354 354 351 348 344 338 337 343 346 344 342 341 338 334 328 322 319 317 314 311 309 308 307 305 304 305 303 302 302 302 303 303 301 300 302 300 288 273 272 281 277 267 260 257 255 245 232 224 223 225 226 226 224 222 220 220 220
87 84 82 79 73 62 50 43 40 37 33 32 30 28 31 32 38 46 32 10 11 11 7 8 3 358 356 355 357 355 351 350 345 337 340 345 346 346 347 347 343 337 330 323 318 316 314 311 308 308 306 303 302 301 299 299 300 299 298 298 298 299 300 300 293 279 267 277 287 279 267 261 258 252 242 232 226 227 227 226 224 222 220 219 219
85 83 81 79 75 65 49 42 41 38 34 34 32 31 36 38 45 53 37 10 12 10 6 7 3 357 356 357 358 355 352 351 344 339 342 345 346 348 349 347 342 338 333 326 321 318 315 311 308 306 304 302 300 298 297 297 296 295 295 293 293 295 294 292 291 285 272 271 285 287 276 266 259 253 248 239 230 228 228 226 224 221 218 217 217
83 79 79 78 77 74 55 41 40 39 36 36 35 33 37 40 47 54 36 12 14 11 5 6 3 359 358 359 358 355 354 351 346 344 346 347 349 351 349 345 341 340 337 331 326 322 314 309 306 304 306 304 300 297 296 296 295 293 293 292 291 291 289 285 285 284 275 267 273 282 276 265 257 251 249 245 235 230 229 229 227 223 218 216 216
81 76 75 74 74 77 68 41 37 38 37 36 35 35 38 42 46 46 29 12 13 11 6 6 5 1 359 359 357 354 353 353 352 352 352 352 354 353 347 344 343 344 342 336 330 326 320 317 311 307 309 307 300 299 297 294 293 290 289 291 290 288 287 285 283 280 274 266 266 273 271 264 257 252 253 252 244 235 231 232 232 227 219 214 215
82 77 72 69 69 72 75 51 34 35 36 35 35 36 37 42 47 39 22 13 12 8 6 7 5 1 356 356 355 352 352 354 356 359 0 359 358 353 346 345 346 348 349 344 339 338 336 334 327 318 317 314 307 303 299 293 289 286 286 290 290 289 288 285 283 280 275 266 262 266 267 264 260 255 254 255 250 242 236 234 236 233 222 211 209
83 79 73 69 65 64 68 63 36 31 34 34 33 35 34 38 45 38 17 12 14 7 5 6 5 358 349 351 352 348 347 348 351 1 6 3 359 351 346 347 348 349 350 348 345 345 344 343 339 335 332 327 318 310 301 293 286 284 289 291 289 289 287 283 282 282 278 269 262 263 262 260 259 256 254 257 254 248 244 239 237 238 228 212 204
84 78 72 68 63 58 58 60 48 30 31 32 30 32 32 31 39 38 19 10 13 8 4 4 4 357 346 346 347 342 340 342 347 358 5 3 359 353 347 350 353 352 351 348 346 347 347 346 346 346 345 340 331 320 309 297 286 285 292 292 288 287 284 279 280 282 279 274 267 264 260 256 254 252 254 260 258 252 250 244 238 238 231 213 201
88 81 75 66 60 54 49 51 51 36 29 29 26 27 28 26 31 35 22 10 11 9 4 1 1 357 347 345 343 335 335 342 351 359 2 359 358 355 349 352 356 355 352 350 348 349 350 350 350 348 348 349 345 335 325 312 295 286 290 291 288 286 281 276 277 280 281 277 269 262 259 255 251 251 252 256 257 254 252 247 239 236 231 214 200
90 87 84 74 61 55 45 42 45 40 31 27 24 23 23 22 26 30 23 14 10 5 1 357 356 354 349 346 339 330 333 345 355 1 0 356 357 355 348 348 351 352 352 352 352 351 351 351 351 350 349 352 353 348 341 331 314 298 294 293 291 287 280 275 272 274 278 276 268 261 261 256 250 251 250 244 243 246 248 247 240 235 231 216 202